Theta_e
308 312 315 312 314 315 314 313 313 314 317 318 318 319 320 320 319 318 319 319 319 319 317 317 318 318 320 321 321 323 325 325 326 325 327 328 328 329 329 328 329 329 329 328
312 311 312 314 314 315 316 314 314 316 320 319 319 319 319 319 319 318 320 320 319 318 321 319 317 319 321 322 324 325 325 326 326 327 327 327 329 329 328 329 329 329 329 329
308 310 312 315 317 316 316 317 317 317 319 319 319 319 320 320 319 318 318 318 317 317 320 320 317 319 321 322 324 325 326 326 327 328 326 328 328 329 329 329 328 328 328 327
308 309 312 316 318 318 317 317 317 319 320 319 319 323 320 319 321 319 319 317 317 318 321 319 318 319 322 323 325 326 326 327 328 327 327 327 330 328 328 328 327 327 326 326
308 309 311 314 318 319 319 319 319 319 319 318 319 320 321 319 320 320 319 318 316 316 320 319 318 320 323 324 326 326 327 328 327 327 327 330 329 327 327 327 327 326 326 326
308 309 310 313 317 319 317 317 316 316 316 319 318 320 320 320 321 321 320 319 321 319 320 318 319 322 323 325 326 328 328 328 326 327 328 329 327 325 325 326 326 326 326 326
309 308 310 312 314 315 314 313 315 317 318 320 319 320 319 319 319 320 320 319 320 320 320 320 320 320 321 324 327 328 328 326 326 327 328 329 327 325 325 325 326 325 326 326
312 312 308 312 312 315 317 315 315 318 321 323 319 323 322 320 319 319 319 318 319 321 320 320 320 319 321 324 326 327 326 326 327 328 328 328 328 324 324 325 326 325 326 326
313 313 312 311 313 314 314 316 314 317 318 320 320 320 320 320 321 321 321 320 320 321 320 320 319 319 321 324 326 327 325 325 327 325 328 328 328 324 324 325 325 325 326 326
312 313 312 311 312 314 312 313 315 314 318 322 320 321 322 322 321 323 323 320 320 321 321 320 319 319 322 324 326 326 325 325 324 323 327 328 328 327 325 325 325 325 325 325
311 311 315 312 312 312 311 311 312 313 313 318 320 321 318 320 320 322 321 319 320 322 322 321 319 319 322 323 325 325 325 325 323 326 326 327 329 328 326 325 324 325 325 325
311 311 312 313 312 312 312 311 313 314 316 316 319 320 319 318 317 320 320 320 319 321 321 321 319 317 320 322 323 323 324 325 323 326 326 327 329 329 328 326 325 326 326 326
311 314 313 313 314 312 312 312 312 311 313 316 318 319 319 321 320 319 320 320 321 321 320 319 317 317 318 320 321 321 322 325 323 324 326 328 330 328 327 326 325 326 327 327
308 310 315 315 313 313 313 313 312 311 311 315 319 319 320 325 321 319 321 320 321 322 322 321 319 316 317 319 320 319 321 324 324 324 327 329 329 329 327 326 328 326 327 328
306 309 313 312 315 316 316 314 313 312 313 314 315 317 317 318 322 320 320 320 322 323 322 322 321 318 315 317 318 319 323 323 323 323 328 329 328 328 326 327 327 327 328 327
309 310 310 313 317 317 317 314 313 313 313 313 316 316 315 317 323 323 322 323 324 324 324 323 321 319 316 317 318 319 323 323 322 323 328 328 328 328 326 326 327 328 328 327
311 309 309 311 312 316 316 315 314 315 313 313 316 316 318 323 325 323 323 323 324 324 324 323 322 320 318 318 319 319 322 323 322 323 328 328 329 327 326 327 327 328 329 329
310 308 308 310 314 317 316 314 314 313 314 315 315 315 318 319 325 323 323 323 323 324 324 323 322 320 319 319 320 320 321 322 322 323 327 327 329 328 327 328 328 328 327 328
310 312 313 314 317 316 319 320 319 320 317 318 324 323 319 317 325 327 323 323 323 323 324 323 322 320 319 320 321 320 321 322 321 322 326 327 327 329 326 328 327 325 327 328
313 313 315 315 320 319 319 315 316 319 319 314 315 316 322 322 324 323 323 324 322 321 322 322 321 320 319 320 321 320 320 320 320 322 324 326 326 329 326 327 325 323 324 327
316 314 316 313 314 321 315 313 314 323 317 313 313 313 312 322 321 320 320 324 323 321 322 322 321 320 319 320 320 319 319 320 322 321 322 325 325 327 327 326 326 323 324 326
317 316 315 311 319 328 313 313 315 313 312 312 312 312 312 313 314 321 319 324 322 320 321 322 322 320 319 319 320 319 318 322 322 321 321 323 324 325 325 325 326 322 323 325
317 313 314 318 320 315 314 313 311 310 310 311 311 312 312 313 319 320 319 322 322 321 322 322 322 320 318 319 320 319 319 320 321 320 321 321 322 326 325 325 326 322 322 322
311 310 314 314 313 312 311 313 310 309 309 310 310 312 313 314 317 321 317 321 321 321 322 322 321 319 318 319 320 322 320 320 320 320 320 320 320 325 326 326 325 322 321 320
309 310 311 313 312 310 311 310 311 310 310 310 310 313 313 315 317 322 317 321 322 321 321 322 321 320 319 319 320 320 320 319 319 319 319 319 319 322 327 326 325 324 323 322
309 309 312 312 310 310 310 310 310 310 310 309 310 313 314 316 324 324 322 322 322 321 322 322 321 320 319 319 320 320 320 319 318 317 317 318 318 319 322 326 325 325 325 325
Wind_Speed
7 8 22 23 17 6 5 12 16 5 3 7 10 8 15 18 7 11 14 15 14 13 5 4 18 24 27 30 36 37 31 25 22 18 14 12 8 8 10 10 11 10 10 11
6 29 22 13 17 17 12 13 16 8 3 6 10 13 16 15 16 9 17 19 15 5 4 4 14 23 30 36 38 33 27 24 22 17 11 5 5 6 9 11 9 7 8 10
25 26 15 17 13 16 17 20 16 10 5 5 7 12 14 12 9 8 11 12 9 10 10 6 7 14 23 29 35 30 25 22 19 13 7 4 4 5 8 6 5 4 5 5
18 21 20 12 20 16 19 16 15 11 3 6 5 6 10 9 16 7 11 9 9 6 2 6 8 11 21 28 32 27 23 20 16 10 7 4 2 4 4 4 4 2 1 1
13 18 21 23 24 20 13 10 9 8 7 2 3 4 6 5 10 14 11 11 9 4 8 8 9 16 24 31 29 25 22 18 14 11 7 3 2 4 3 2 2 1 1 2
11 7 23 10 12 16 7 5 4 3 1 8 13 7 4 6 10 6 5 4 3 6 8 9 12 22 24 27 25 24 21 17 13 11 7 3 3 3 2 2 3 3 3 4
5 14 2 7 6 7 7 8 1 3 0 5 6 7 13 10 9 9 11 7 4 3 11 12 15 12 19 24 24 22 20 15 13 10 7 5 3 3 1 2 4 2 4 6
8 5 17 6 10 9 16 10 6 5 3 5 7 8 7 13 13 10 10 4 8 7 8 11 13 12 19 24 25 22 19 14 13 9 6 5 3 2 1 2 1 1 4 8
6 6 4 14 7 20 8 10 10 2 1 1 4 7 7 6 7 3 1 5 8 8 7 12 11 14 20 24 25 23 18 13 12 9 9 6 4 2 1 1 3 4 6 8
4 2 5 14 6 19 11 11 7 6 6 4 5 5 5 3 7 3 4 7 6 7 8 9 9 12 20 26 25 21 17 14 11 8 8 7 4 3 3 2 6 6 5 7
7 1 2 10 13 13 5 6 3 7 5 5 1 6 7 9 7 8 9 9 9 11 11 11 9 14 22 25 24 20 15 13 10 10 8 6 6 4 5 3 6 4 4 6
3 3 3 13 7 20 17 10 7 8 10 4 4 5 4 9 6 6 8 8 7 6 9 9 11 13 18 23 23 20 16 13 11 11 8 6 7 5 5 4 6 3 5 5
8 4 2 2 3 3 21 20 11 5 4 16 4 5 3 5 4 6 8 8 8 7 8 7 8 9 12 20 23 19 16 14 11 9 9 8 7 6 5 6 6 5 6 7
11 3 5 8 2 5 5 16 18 9 3 4 10 3 5 4 7 6 6 6 9 8 10 10 8 8 13 20 23 19 16 14 14 11 10 10 7 6 5 8 7 7 6 10
6 4 3 14 12 8 0 9 20 17 21 11 4 7 6 8 9 6 7 8 11 10 11 12 12 9 10 17 22 20 17 16 16 13 12 10 8 7 7 11 11 9 9 10
3 4 6 4 6 14 10 11 10 24 20 18 3 11 8 4 5 6 10 11 12 12 13 12 12 12 11 17 23 22 20 18 18 16 14 12 11 9 9 12 12 11 10 10
2 3 6 4 7 4 11 22 12 5 12 15 11 22 4 5 8 10 10 12 14 14 15 15 14 14 16 21 28 24 23 19 20 18 16 15 14 12 10 11 12 11 9 11
4 1 2 4 5 6 5 4 15 14 7 9 11 6 10 11 15 10 11 16 14 14 14 14 13 13 19 25 30 27 23 21 22 20 18 17 17 15 12 11 9 8 9 12
13 3 3 3 2 5 4 8 7 3 2 10 7 8 6 9 4 5 8 11 19 20 18 14 23 24 26 29 32 29 24 23 23 23 20 19 16 17 18 14 10 8 10 12
6 12 5 1 2 5 6 15 9 2 4 12 11 10 11 10 5 7 11 10 10 10 12 14 22 23 27 29 34 30 27 25 25 27 24 21 17 22 21 16 12 9 9 11
2 2 5 2 2 1 14 17 8 8 4 11 11 10 10 5 5 11 11 13 15 15 18 23 23 24 29 33 33 25 26 25 30 29 26 23 19 22 21 19 16 13 12 14
2 1 2 2 2 1 14 6 7 6 6 9 10 9 12 14 17 16 10 9 14 16 17 23 22 21 27 34 32 25 25 35 29 29 28 25 23 22 20 20 20 18 16 16
2 2 2 4 2 8 8 1 2 5 9 9 11 14 13 15 15 15 11 8 13 17 17 27 24 21 25 34 34 28 31 33 30 28 30 27 26 23 21 21 22 20 19 18
1 1 1 4 6 15 14 6 8 9 11 15 13 14 14 14 14 14 11 7 9 13 15 25 23 19 22 30 34 38 35 36 33 30 31 30 28 25 24 22 23 23 22 19
0 3 4 2 6 14 7 11 15 17 16 16 16 14 14 14 13 10 10 9 11 13 16 25 22 22 25 29 28 29 36 37 33 31 31 31 29 30 27 26 25 25 24 23
3 5 1 1 2 8 13 15 20 16 16 17 17 19 19 14 14 12 9 9 11 12 19 18 21 21 25 30 30 33 37 40 36 28 29 30 29 31 29 28 24 26 26 25
Wind_Direction
183 198 218 207 208 206 206 229 242 248 202 243 244 256 265 281 250 266 272 271 272 270 289 214 184 181 178 179 176 176 179 189 194 200 209 227 252 272 289 297 290 268 257 250
168 227 219 196 204 208 211 237 248 264 197 228 271 273 273 278 272 248 268 276 268 241 223 163 153 164 169 169 173 173 181 189 192 198 208 231 270 284 293 300 303 271 263 259
200 225 199 195 194 205 214 221 236 238 307 262 311 291 279 280 277 256 251 249 266 237 206 175 154 152 154 159 168 169 178 185 188 193 202 218 265 293 302 316 323 294 275 270
229 223 194 191 207 194 222 215 236 253 255 255 132 284 290 300 296 278 283 292 271 249 353 136 141 144 152 158 167 169 175 179 183 186 193 210 264 306 296 321 307 299 275 176
213 178 199 204 204 193 224 178 211 225 231 208 240 278 266 267 279 281 271 270 268 233 168 158 144 143 148 163 165 169 173 177 178 180 195 211 284 292 288 296 289 253 143 153
213 201 196 176 189 197 169 143 80 31 141 258 255 204 245 231 233 261 266 262 318 134 124 112 126 140 150 163 164 169 173 175 180 191 204 232 275 261 261 291 280 293 211 178
167 232 196 161 174 164 131 98 258 335 243 225 192 187 244 252 235 233 256 271 110 186 129 142 149 146 146 162 167 170 175 175 185 200 215 220 254 240 321 306 278 290 180 172
173 202 199 177 183 171 184 161 155 199 214 249 161 203 245 224 231 239 246 196 141 176 145 155 152 149 155 165 171 173 175 177 186 197 211 212 219 203 360 310 295 186 179 163
162 234 166 185 164 180 176 201 175 63 173 312 224 276 305 227 261 280 63 156 154 165 160 153 152 154 156 168 173 175 179 185 189 202 194 212 199 192 208 24 93 123 140 156
244 168 189 203 147 187 174 145 178 194 195 230 274 271 225 221 227 292 217 192 166 154 155 153 152 152 165 173 174 179 185 182 190 197 200 210 183 195 184 117 106 123 139 159
0 106 255 137 198 172 153 167 145 164 159 164 298 262 221 224 216 226 215 175 181 163 167 161 151 162 169 174 176 182 184 184 187 186 195 206 181 194 180 137 130 129 150 163
306 321 217 211 161 195 198 174 158 189 196 207 157 267 221 229 243 221 210 157 146 173 160 156 152 152 163 172 181 187 186 189 193 189 198 197 181 186 174 160 150 121 145 162
334 304 148 47 320 139 203 203 199 117 107 210 177 252 318 323 271 222 196 156 143 157 136 133 138 163 167 175 186 190 192 192 190 189 188 173 175 165 156 150 141 127 133 143
336 283 272 218 206 134 160 207 210 193 158 185 213 187 261 280 264 242 169 153 137 151 157 158 158 168 170 180 187 192 194 191 181 179 174 159 163 155 140 143 131 131 132 136
3 273 290 309 291 286 152 185 201 205 215 208 187 234 225 245 242 241 154 133 142 158 166 175 172 169 171 176 189 195 191 183 182 177 169 156 145 138 132 142 134 132 133 133
290 283 345 300 270 272 264 263 229 204 208 227 182 252 212 250 128 178 160 161 168 176 181 178 176 168 174 178 188 196 191 186 184 180 170 155 144 135 138 143 143 139 133 135
261 302 3 305 340 267 263 238 234 218 221 202 197 234 146 201 219 198 170 179 180 182 180 177 180 179 180 182 188 195 194 188 187 184 174 165 151 145 142 148 152 150 149 154
218 114 228 267 308 179 234 173 211 222 222 223 245 233 191 206 217 196 184 185 180 177 183 181 176 178 179 186 191 195 194 191 190 186 181 172 164 156 154 152 155 153 155 159
219 181 233 202 235 272 75 29 3 16 134 7 336 343 350 327 63 269 197 186 185 182 184 179 173 175 177 185 190 193 192 193 192 189 187 182 180 176 171 161 163 149 142 157
307 211 206 175 191 188 25 322 309 257 190 1 350 339 339 327 168 232 186 184 165 158 167 165 167 166 172 185 190 187 191 193 194 195 193 187 182 174 178 174 169 160 149 151
36 64 198 202 259 321 340 319 299 158 285 319 327 315 310 280 237 319 298 185 175 164 163 160 160 167 180 183 183 179 187 192 203 199 197 192 187 182 181 179 177 168 152 146
104 303 206 187 260 154 358 4 62 281 299 310 313 308 297 293 296 292 286 241 152 150 153 164 165 175 174 180 178 177 188 204 204 201 197 196 193 189 183 181 178 173 163 156
97 53 289 349 27 338 336 262 241 265 292 307 313 305 306 302 293 289 269 204 182 165 168 171 172 165 171 178 182 181 197 201 201 201 199 198 195 194 191 184 179 176 176 172
111 281 253 313 11 325 307 279 346 330 325 308 313 311 315 296 296 287 257 200 189 169 169 165 160 168 170 181 185 196 191 198 199 199 202 199 194 193 195 194 190 186 184 184
98 304 270 255 312 321 35 341 328 325 324 324 323 326 318 308 305 289 247 188 182 181 162 165 170 175 178 179 187 187 193 192 190 196 200 202 199 197 196 200 199 202 204 200
187 216 253 356 337 288 288 314 319 319 317 325 325 324 333 330 327 310 274 204 173 178 164 166 173 172 169 176 180 187 192 192 186 184 193 199 197 200 202 202 204 212 216 214